Regional Weather Roundup
Issued by NWS

Home | Current Version | Previous Version | Graphics & Text | Print | Product List | Glossary On
Versions: 1 2 3 4 5 6 7 8 9 10 11 12 13 14 15 16 17 18 19 20 21 22 23 24 25 26 27 28 29 30 31 32 33 34 35 36 37 38 39 40 41 42 43 44 45 46 47 48 49 50
000
ASUS43 KOAX 280502
RWRNE

WEATHER ROUNDUP FOR NEBRASKA
NATIONAL WEATHER SERVICE OMAHA NE
1200 AM CDT MON JUL 28 2014

NOTES: SATELLITE DATA IS BEING USED TO AUGMENT CLOUD COVER ABOVE
       12000 FEET.
       "FAIR" INDICATES FEW OR NO CLOUDS BELOW 12,000 FEET WITH NO
       SIGNIFICANT WEATHER AND/OR OBSTRUCTIONS TO VISIBILITY.

  * THESE STATIONS DO NOT REPORT WEATHER SUCH AS RAIN...SNOW OR FOG.

NEZ001>004-019>022-054>056-280600-
NEBRASKA PANHANDLE

CITY           SKY/WX    TMP DP  RH WIND       PRES   REMARKS
SCOTTSBLUFF    CLEAR     70  50  49 E13       30.31R
ALLIANCE       CLEAR     62  49  62 E7        30.33R
CHADRON        CLEAR     62  50  64 NE3       30.30R
KIMBALL        MOCLDY    69  47  46 S8        30.35S
SIDNEY         PTCLDY    69  48  47 SE8       30.34R
$$

NEZ057>060-069>072-079>082-280600-
SOUTHWEST NEBRASKA

CITY           SKY/WX    TMP DP  RH WIND       PRES   REMARKS
NORTH PLATTE   CLEAR     60  51  72 CALM      30.29R
IMPERIAL       MOCLDY    70  49  47 E8        30.29S
LEXINGTON      CLEAR     63  55  74 CALM      30.27R
MCCOOK         PTCLDY    66  54  65 NE3       30.26S
OGALLALA       CLEAR     60  50  70 E3        30.30S
$$

NEZ005>010-023>029-035>040-094-280600-
NORTH CENTRAL NEBRASKA

CITY           SKY/WX    TMP DP  RH WIND       PRES   REMARKS
VALENTINE      CLEAR     61  51  70 SE3       30.31R
AINSWORTH      CLEAR     60  53  75 CALM      30.30S
BROKEN BOW     CLEAR     66  56  70 NE7       30.27R
O`NEILL        CLEAR     59  54  83 NE3       30.28R
ORD            CLEAR     61  55  81 N5        30.26R
THEDFORD       CLEAR     64  53  68 E6        30.32R
$$

NEZ041-046>049-061>064-073>077-083>087-280600-
SOUTH CENTRAL NEBRASKA

CITY           SKY/WX    TMP DP  RH WIND       PRES   REMARKS
GRAND ISLAND   CLEAR     62  58  86 NE6       30.25R
AURORA         CLEAR     64  61  91 N6        30.24S
HASTINGS       CLEAR     64  57  78 CALM      30.24R
HEBRON         CLEAR     64  58  81 CALM      30.21R
HOLDREGE       CLEAR     63  56  78 CALM      30.25S
KEARNEY *      CLEAR     63  55  77 N7        30.26R
YORK             N/A     61  61 100 NE7       30.23S
$$

NEZ011>018-030>034-042>045-280600-
NORTHEAST NEBRASKA

CITY           SKY/WX    TMP DP  RH WIND       PRES   REMARKS
NORFOLK        CLEAR     62  55  77 N6        30.24R
ALBION         CLEAR     62  56  82 N6        30.26R
BLAIR          CLEAR     64  55  72 N9        30.20R
COLUMBUS *     CLEAR     63  55  77 N6        30.24R
FREMONT        CLEAR     64  58  79 NW3       30.21S
WAYNE          CLEAR     59  56  92 NW6       30.23S
$$

NEZ050>053-065>068-078-088>093-280600-
SOUTHEAST NEBRASKA

CITY           SKY/WX    TMP DP  RH WIND       PRES   REMARKS
LINCOLN        CLEAR     70  57  63 NW8       30.21R
OMAHA EPPLEY   CLEAR     66  57  72 N10       30.18R
BEATRICE       CLEAR     63  58  86 N5        30.20R
NEBRASKA CITY  CLEAR     65  55  70 N8        30.17S
PLATTSMOUTH    CLEAR     65  57  75 N5        30.18R
$$

NEZ044-045-051>053-067-280600-
OMAHA AREA

CITY           SKY/WX    TMP DP  RH WIND       PRES   REMARKS
OMAHA EPPLEY   CLEAR     66  57  72 N10       30.18R
BLAIR          CLEAR     64  55  72 N9        30.20R
FREMONT        CLEAR     64  58  79 NW3       30.21S
MILLARD        CLEAR     68  57  68 N3        30.19R
OFFUTT AFB     CLEAR     68  60  75 N6        30.18R
PLATTSMOUTH    CLEAR     65  57  75 N5        30.18R
WAHOO          FAIR      63  58  83 N7        30.21R
$$



USA.gov is the U.S. government's official web portal to all federal, state and local government web resources and services.